Location: Beccas
(43.4309°N, 0.1528°E)
Time: 01:48:28
(UTC+00:00)

Meteor 1-21 Rocket - Pass Details

Date: 15 October 2021
Orbit: 834 x 906 km, 81.2° (Epoch: 02 December)

Event Time Altitude Azimuth Distance (km) Brightness Sun altitude
Rises 18:22:22 0° 352° (N) 3,487 7.5 -12.8°
Reaches altitude 10° 18:24:50 10° 355° (N) 2,555 6.8 -13.2°
Maximum altitude 18:30:37 66° 78° (ENE) 975 4.3 -14.3°
Drops below altitude 10° 18:36:28 10° 160° (SSE) 2,574 6.5 -15.4°
Sets 18:38:57 0° 163° (SSE) 3,515 7.2 -15.8°
